Year,Month,Day,Hour,Minute,Value (Times are PST for temperature in C)
2010,04,09,00,00,3.40
2010,04,09,00,01,3.40
2010,04,09,00,02,3.40
2010,04,09,00,03,3.40
2010,04,09,00,04,3.40
2010,04,09,00,05,3.40
2010,04,09,00,06,3.40
2010,04,09,00,07,3.40
2010,04,09,00,08,3.40
2010,04,09,00,09,3.40
2010,04,09,00,10,3.40
2010,04,09,00,11,3.40
2010,04,09,00,12,3.40
2010,04,09,00,13,3.40
2010,04,09,00,14,3.30
2010,04,09,00,15,3.30
2010,04,09,00,16,3.30
2010,04,09,00,17,3.30
2010,04,09,00,18,3.40
2010,04,09,00,19,3.40
2010,04,09,00,20,3.40
2010,04,09,00,21,3.40
2010,04,09,00,22,3.40
2010,04,09,00,23,3.40
2010,04,09,00,24,3.40
2010,04,09,00,25,3.50
2010,04,09,00,26,3.50
2010,04,09,00,27,3.50
2010,04,09,00,28,3.50
2010,04,09,00,29,3.50
2010,04,09,00,30,3.50
2010,04,09,00,31,3.40
2010,04,09,00,32,3.40
2010,04,09,00,33,3.40
2010,04,09,00,34,3.40
2010,04,09,00,35,3.40
2010,04,09,00,36,3.30
2010,04,09,00,37,3.30
2010,04,09,00,38,3.30
2010,04,09,00,39,3.30
2010,04,09,00,40,3.30
2010,04,09,00,41,3.30
2010,04,09,00,42,3.30
2010,04,09,00,43,3.30
2010,04,09,00,44,3.30
2010,04,09,00,45,3.30
2010,04,09,00,46,3.30
2010,04,09,00,47,3.30
2010,04,09,00,48,3.30
2010,04,09,00,49,3.30
2010,04,09,00,50,3.30
2010,04,09,00,51,3.30
2010,04,09,00,52,3.30
2010,04,09,00,53,3.30
2010,04,09,00,54,3.30
2010,04,09,00,55,3.30
2010,04,09,00,56,3.30
2010,04,09,00,57,3.30
2010,04,09,00,58,3.30
2010,04,09,00,59,3.30
2010,04,09,01,00,3.30
2010,04,09,01,01,3.30
2010,04,09,01,02,3.30
2010,04,09,01,03,3.30
2010,04,09,01,04,3.30
2010,04,09,01,05,3.30
2010,04,09,01,06,3.30
2010,04,09,01,07,3.30
2010,04,09,01,08,3.30
2010,04,09,01,09,3.30
2010,04,09,01,10,3.30
2010,04,09,01,11,3.20
2010,04,09,01,12,3.20
2010,04,09,01,13,3.20
2010,04,09,01,14,3.20
2010,04,09,01,15,3.20
2010,04,09,01,16,3.20
2010,04,09,01,17,3.20
2010,04,09,01,18,3.20
2010,04,09,01,19,3.20
2010,04,09,01,20,3.30
2010,04,09,01,21,3.30
2010,04,09,01,22,3.30
2010,04,09,01,23,3.30
2010,04,09,01,24,3.30
2010,04,09,01,25,3.30
2010,04,09,01,26,3.30
2010,04,09,01,27,3.30
2010,04,09,01,28,3.20
2010,04,09,01,29,3.20
2010,04,09,01,30,3.20
2010,04,09,01,31,3.20
2010,04,09,01,32,3.20
2010,04,09,01,33,3.10
2010,04,09,01,34,3.10
2010,04,09,01,35,3.10
2010,04,09,01,36,3.10
2010,04,09,01,37,3.10
2010,04,09,01,38,3.10
2010,04,09,01,39,3.10
2010,04,09,01,40,3.10
2010,04,09,01,41,3.10
2010,04,09,01,42,3.10
2010,04,09,01,43,3.10
2010,04,09,01,44,3.10
2010,04,09,01,45,3.10
2010,04,09,01,46,3.10
2010,04,09,01,47,3.10
2010,04,09,01,48,3.10
2010,04,09,01,49,3.00
2010,04,09,01,50,2.90
2010,04,09,01,51,2.90
2010,04,09,01,52,2.90
2010,04,09,01,53,2.90
2010,04,09,01,54,2.90
2010,04,09,01,55,2.90
2010,04,09,01,56,2.90
2010,04,09,01,57,2.90
2010,04,09,01,58,2.90
2010,04,09,01,59,2.80
2010,04,09,02,00,2.80
2010,04,09,02,01,2.80
2010,04,09,02,02,2.80
2010,04,09,02,03,2.80
2010,04,09,02,04,2.80
2010,04,09,02,05,2.70
2010,04,09,02,06,2.70
2010,04,09,02,07,2.70
2010,04,09,02,08,2.70
2010,04,09,02,09,2.70
2010,04,09,02,10,2.60
2010,04,09,02,11,2.60
2010,04,09,02,12,2.60
2010,04,09,02,13,2.50
2010,04,09,02,14,2.50
2010,04,09,02,15,2.40
2010,04,09,02,16,2.40
2010,04,09,02,17,2.40
2010,04,09,02,18,2.30
2010,04,09,02,19,2.20
2010,04,09,02,20,2.20
2010,04,09,02,21,2.20
2010,04,09,02,22,2.20
2010,04,09,02,23,2.10
2010,04,09,02,24,2.10
2010,04,09,02,25,2.00
2010,04,09,02,26,2.00
2010,04,09,02,27,2.00
2010,04,09,02,28,1.90
2010,04,09,02,29,1.90
2010,04,09,02,30,1.90
2010,04,09,02,31,1.80
2010,04,09,02,32,1.80
2010,04,09,02,33,1.80
2010,04,09,02,34,1.80
2010,04,09,02,35,1.80
2010,04,09,02,36,1.80
2010,04,09,02,37,1.80
2010,04,09,02,38,1.80
2010,04,09,02,39,1.80
2010,04,09,02,40,1.80
2010,04,09,02,41,1.80
2010,04,09,02,42,1.80
2010,04,09,02,43,1.80
2010,04,09,02,44,1.70
2010,04,09,02,45,1.70
2010,04,09,02,46,1.70
2010,04,09,02,47,1.60
2010,04,09,02,48,1.60
2010,04,09,02,49,1.60
2010,04,09,02,50,1.60
2010,04,09,02,51,1.50
2010,04,09,02,52,1.50
2010,04,09,02,53,1.50
2010,04,09,02,54,1.50
2010,04,09,02,55,1.40
2010,04,09,02,56,1.40
2010,04,09,02,57,1.40
2010,04,09,02,58,1.30
2010,04,09,02,59,1.30
2010,04,09,03,00,1.30
2010,04,09,03,01,1.30
2010,04,09,03,02,1.30
2010,04,09,03,03,1.20
2010,04,09,03,04,1.20
2010,04,09,03,05,1.20
2010,04,09,03,06,1.10
2010,04,09,03,07,1.10
2010,04,09,03,08,1.10
2010,04,09,03,09,1.10
2010,04,09,03,10,1.10
2010,04,09,03,11,1.00
2010,04,09,03,12,1.00
2010,04,09,03,13,1.00
2010,04,09,03,14,1.00
2010,04,09,03,15,1.00
2010,04,09,03,16,0.90
2010,04,09,03,17,0.90
2010,04,09,03,18,0.80
2010,04,09,03,19,0.80
2010,04,09,03,20,0.80
2010,04,09,03,21,0.80
2010,04,09,03,22,0.80
2010,04,09,03,23,0.80
2010,04,09,03,24,0.80
2010,04,09,03,25,0.80
2010,04,09,03,26,0.80
2010,04,09,03,27,0.80
2010,04,09,03,28,0.80
2010,04,09,03,29,0.80
2010,04,09,03,30,0.80
2010,04,09,03,31,0.70
2010,04,09,03,32,0.70
2010,04,09,03,33,0.60
2010,04,09,03,34,0.60
2010,04,09,03,35,0.60
2010,04,09,03,36,0.60
2010,04,09,03,37,0.60
2010,04,09,03,38,0.60
2010,04,09,03,39,0.60
2010,04,09,03,40,0.60
2010,04,09,03,41,0.60
2010,04,09,03,42,0.60
2010,04,09,03,43,0.60
2010,04,09,03,44,0.60
2010,04,09,03,45,0.70
2010,04,09,03,46,0.70
2010,04,09,03,47,0.80
2010,04,09,03,48,0.70
2010,04,09,03,49,0.70
2010,04,09,03,50,0.70
2010,04,09,03,51,0.80
2010,04,09,03,52,0.80
2010,04,09,03,53,0.80
2010,04,09,03,54,0.80
2010,04,09,03,55,0.90
2010,04,09,03,56,1.00
2010,04,09,03,57,1.00
2010,04,09,03,58,1.00
2010,04,09,03,59,1.10
2010,04,09,04,00,1.10
2010,04,09,04,01,1.20
2010,04,09,04,02,1.30
2010,04,09,04,03,1.40
2010,04,09,04,04,1.40
2010,04,09,04,05,1.50
2010,04,09,04,06,1.50
2010,04,09,04,07,1.60
2010,04,09,04,08,1.70
2010,04,09,04,09,1.80
2010,04,09,04,10,1.80
2010,04,09,04,11,1.80
2010,04,09,04,12,1.80
2010,04,09,04,13,1.90
2010,04,09,04,14,1.90
2010,04,09,04,15,1.90
2010,04,09,04,16,1.90
2010,04,09,04,17,1.90
2010,04,09,04,18,1.80
2010,04,09,04,19,1.80
2010,04,09,04,20,1.80
2010,04,09,04,21,1.70
2010,04,09,04,22,1.60
2010,04,09,04,23,1.50
2010,04,09,04,24,1.50
2010,04,09,04,25,1.40
2010,04,09,04,26,1.30
2010,04,09,04,27,1.30
2010,04,09,04,28,1.20
2010,04,09,04,29,1.10
2010,04,09,04,30,1.10
2010,04,09,04,31,1.00
2010,04,09,04,32,0.90
2010,04,09,04,33,0.90
2010,04,09,04,34,0.80
2010,04,09,04,35,0.80
2010,04,09,04,36,0.70
2010,04,09,04,37,0.60
2010,04,09,04,38,0.50
2010,04,09,04,39,0.50
2010,04,09,04,40,0.40
2010,04,09,04,41,0.40
2010,04,09,04,42,0.40
2010,04,09,04,43,0.30
2010,04,09,04,44,0.30
2010,04,09,04,45,0.30
2010,04,09,04,46,0.30
2010,04,09,04,47,0.30
2010,04,09,04,48,0.30
2010,04,09,04,49,0.30
2010,04,09,04,50,0.30
2010,04,09,04,51,0.30
2010,04,09,04,52,0.20
2010,04,09,04,53,0.20
2010,04,09,04,54,0.20
2010,04,09,04,55,0.20
2010,04,09,04,56,0.20
2010,04,09,04,57,0.20
2010,04,09,04,58,0.20
2010,04,09,04,59,0.20
2010,04,09,05,00,0.20
2010,04,09,05,01,0.20
2010,04,09,05,02,0.10
2010,04,09,05,03,0.10
2010,04,09,05,04,0.10
2010,04,09,05,05,0.10
2010,04,09,05,06,0.10
2010,04,09,05,07,0.10
2010,04,09,05,08,0.10
2010,04,09,05,09,0.10
2010,04,09,05,10,0.10
2010,04,09,05,11,0.10
2010,04,09,05,12,0.10
2010,04,09,05,13,0.10
2010,04,09,05,14,0.10
2010,04,09,05,15,0.10
2010,04,09,05,16,0.10
2010,04,09,05,17,0.10
2010,04,09,05,18,0.10
2010,04,09,05,19,0.10
2010,04,09,05,20,0.10
2010,04,09,05,21,0.10
2010,04,09,05,22,0.10
2010,04,09,05,23,0.10
2010,04,09,05,24,0.10
2010,04,09,05,25,0.10
2010,04,09,05,26,0.10
2010,04,09,05,27,0.10
2010,04,09,05,28,0.10
2010,04,09,05,29,0.10
2010,04,09,05,30,0.10
2010,04,09,05,31,0.10
2010,04,09,05,32,0.00
2010,04,09,05,33,-0.10
2010,04,09,05,34,-0.10
2010,04,09,05,35,-0.10
2010,04,09,05,36,-0.10
2010,04,09,05,37,-0.10
2010,04,09,05,38,-0.10
2010,04,09,05,39,-0.10
2010,04,09,05,40,-0.10
2010,04,09,05,41,-0.10
2010,04,09,05,42,-0.10
2010,04,09,05,43,-0.10
2010,04,09,05,44,-0.10
2010,04,09,05,45,-0.10
2010,04,09,05,46,-0.10
2010,04,09,05,47,-0.20
2010,04,09,05,48,-0.20
2010,04,09,05,49,-0.30
2010,04,09,05,50,-0.30
2010,04,09,05,51,-0.30
2010,04,09,05,52,-0.30
2010,04,09,05,53,-0.40
2010,04,09,05,54,-0.40
2010,04,09,05,55,-0.40
2010,04,09,05,56,-0.40
2010,04,09,05,57,-0.40
2010,04,09,05,58,-0.40
2010,04,09,05,59,-0.40
2010,04,09,06,00,-0.40
2010,04,09,06,01,-0.50
2010,04,09,06,02,-0.60
2010,04,09,06,03,-0.60
2010,04,09,06,04,-0.60
2010,04,09,06,05,-0.60
2010,04,09,06,06,-0.60
2010,04,09,06,07,-0.60
2010,04,09,06,08,-0.60
2010,04,09,06,09,-0.60
2010,04,09,06,10,-0.60
2010,04,09,06,11,-0.60
2010,04,09,06,12,-0.60
2010,04,09,06,13,-0.60
2010,04,09,06,14,-0.60
2010,04,09,06,15,-0.60
2010,04,09,06,16,-0.70
2010,04,09,06,17,-0.70
2010,04,09,06,18,-0.70
2010,04,09,06,19,-0.70
2010,04,09,06,20,-0.70
2010,04,09,06,21,-0.70
2010,04,09,06,22,-0.70
2010,04,09,06,23,-0.70
2010,04,09,06,24,-0.70
2010,04,09,06,25,-0.70
2010,04,09,06,26,-0.70
2010,04,09,06,27,-0.70
2010,04,09,06,28,-0.70
2010,04,09,06,29,-0.70
2010,04,09,06,30,-0.70
2010,04,09,06,31,-0.70
2010,04,09,06,32,-0.70
2010,04,09,06,33,-0.70
2010,04,09,06,34,-0.70
2010,04,09,06,35,-0.70
2010,04,09,06,36,-0.70
2010,04,09,06,37,-0.70
2010,04,09,06,38,-0.70
2010,04,09,06,39,-0.60
2010,04,09,06,40,-0.70
2010,04,09,06,41,-0.70
2010,04,09,06,42,-0.70
2010,04,09,06,43,-0.70
2010,04,09,06,44,-0.70
2010,04,09,06,45,-0.70
2010,04,09,06,46,-0.70
2010,04,09,06,47,-0.70
2010,04,09,06,48,-0.70
2010,04,09,06,49,-0.70
2010,04,09,06,50,-0.70
2010,04,09,06,51,-0.70
2010,04,09,06,52,-0.70
2010,04,09,06,53,-0.70
2010,04,09,06,54,-0.70
2010,04,09,06,55,-0.70
2010,04,09,06,56,-0.70
2010,04,09,06,57,-0.70
2010,04,09,06,58,-0.80
2010,04,09,06,59,-0.80
2010,04,09,07,00,-0.80
2010,04,09,07,01,-0.80
2010,04,09,07,02,-0.80
2010,04,09,07,03,-0.80
2010,04,09,07,04,-0.80
2010,04,09,07,05,-0.80
2010,04,09,07,06,-0.80
2010,04,09,07,07,-0.80
2010,04,09,07,08,-0.80
2010,04,09,07,09,-0.80
2010,04,09,07,10,-0.80
2010,04,09,07,11,-0.80
2010,04,09,07,12,-0.80
2010,04,09,07,13,-0.80
2010,04,09,07,14,-0.80
2010,04,09,07,15,-0.80
2010,04,09,07,16,-0.80
2010,04,09,07,17,-0.80
2010,04,09,07,18,-0.80
2010,04,09,07,19,-0.80
2010,04,09,07,20,-0.80
2010,04,09,07,21,-0.80
2010,04,09,07,22,-0.80
2010,04,09,07,23,-0.70
2010,04,09,07,24,-0.70
2010,04,09,07,25,-0.70
2010,04,09,07,26,-0.70
2010,04,09,07,27,-0.70
2010,04,09,07,28,-0.70
2010,04,09,07,29,-0.70
2010,04,09,07,30,-0.70
2010,04,09,07,31,-0.70
2010,04,09,07,32,-0.70
2010,04,09,07,33,-0.70
2010,04,09,07,34,-0.70
2010,04,09,07,35,-0.70
2010,04,09,07,36,-0.60
2010,04,09,07,37,-0.60
2010,04,09,07,38,-0.60
2010,04,09,07,39,-0.60
2010,04,09,07,40,-0.60
2010,04,09,07,41,-0.60
2010,04,09,07,42,-0.60
2010,04,09,07,43,-0.60
2010,04,09,07,44,-0.50
2010,04,09,07,45,-0.40
2010,04,09,07,46,-0.40
2010,04,09,07,47,-0.40
2010,04,09,07,48,-0.40
2010,04,09,07,49,-0.40
2010,04,09,07,50,-0.40
2010,04,09,07,51,-0.30
2010,04,09,07,52,-0.30
2010,04,09,07,53,-0.30
2010,04,09,07,54,-0.20
2010,04,09,07,55,-0.20
2010,04,09,07,56,-0.10
2010,04,09,07,57,-0.10
2010,04,09,07,58,0.00
2010,04,09,07,59,0.10
2010,04,09,08,00,0.10
2010,04,09,08,01,0.10
2010,04,09,08,02,0.20
2010,04,09,08,03,0.20
2010,04,09,08,04,0.30
2010,04,09,08,05,0.40
2010,04,09,08,06,0.40
2010,04,09,08,07,0.50
2010,04,09,08,08,0.60
2010,04,09,08,09,0.60
2010,04,09,08,10,0.70
2010,04,09,08,11,0.80
2010,04,09,08,12,0.80
2010,04,09,08,13,0.90
2010,04,09,08,14,1.00
2010,04,09,08,15,1.10
2010,04,09,08,16,1.20
2010,04,09,08,17,1.20
2010,04,09,08,18,1.30
2010,04,09,08,19,1.30
2010,04,09,08,20,1.30
2010,04,09,08,21,1.30
2010,04,09,08,22,1.30
2010,04,09,08,23,1.40
2010,04,09,08,24,1.40
2010,04,09,08,25,1.40
2010,04,09,08,26,1.50
2010,04,09,08,27,1.50
2010,04,09,08,28,1.50
2010,04,09,08,29,1.50
2010,04,09,08,30,1.60
2010,04,09,08,31,1.60
2010,04,09,08,32,1.60
2010,04,09,08,33,1.60
2010,04,09,08,34,1.70
2010,04,09,08,35,1.70
2010,04,09,08,36,1.70
2010,04,09,08,37,1.80
2010,04,09,08,38,1.80
2010,04,09,08,39,1.80
2010,04,09,08,40,1.80
2010,04,09,08,41,1.80
2010,04,09,08,42,1.80
2010,04,09,08,43,1.80
2010,04,09,08,44,1.80
2010,04,09,08,45,1.90
2010,04,09,08,46,1.90
2010,04,09,08,47,1.90
2010,04,09,08,48,2.00
2010,04,09,08,49,2.00
2010,04,09,08,50,2.10
2010,04,09,08,51,2.10
2010,04,09,08,52,2.10
2010,04,09,08,53,2.20
2010,04,09,08,54,2.20
2010,04,09,08,55,2.20
2010,04,09,08,56,2.20
2010,04,09,08,57,2.30
2010,04,09,08,58,2.40
2010,04,09,08,59,2.40
2010,04,09,09,00,2.50
2010,04,09,09,01,2.60
2010,04,09,09,02,2.70
2010,04,09,09,03,2.70
2010,04,09,09,04,2.80
2010,04,09,09,05,2.90
2010,04,09,09,06,2.90
2010,04,09,09,07,3.00
2010,04,09,09,08,3.10
2010,04,09,09,09,3.10
2010,04,09,09,10,3.10
2010,04,09,09,11,3.20
2010,04,09,09,12,3.20
2010,04,09,09,13,3.20
2010,04,09,09,14,3.30
2010,04,09,09,15,3.30
2010,04,09,09,16,3.30
2010,04,09,09,17,3.40
2010,04,09,09,18,3.40
2010,04,09,09,19,3.50
2010,04,09,09,20,3.50
2010,04,09,09,21,3.50
2010,04,09,09,22,3.60
2010,04,09,09,23,3.60
2010,04,09,09,24,3.60
2010,04,09,09,25,3.70
2010,04,09,09,26,3.70
2010,04,09,09,27,3.80
2010,04,09,09,28,3.80
2010,04,09,09,29,3.80
2010,04,09,09,30,3.80
2010,04,09,09,31,3.80
2010,04,09,09,32,3.90
2010,04,09,09,33,3.90
2010,04,09,09,34,4.00
2010,04,09,09,35,4.00
2010,04,09,09,36,4.10
2010,04,09,09,37,4.10
2010,04,09,09,38,4.10
2010,04,09,09,39,4.10
2010,04,09,09,40,4.10
2010,04,09,09,41,4.20
2010,04,09,09,42,4.20
2010,04,09,09,43,4.20
2010,04,09,09,44,4.20
2010,04,09,09,45,4.20
2010,04,09,09,46,4.30
2010,04,09,09,47,4.30
2010,04,09,09,48,4.40
2010,04,09,09,49,4.50
2010,04,09,09,50,4.50
2010,04,09,09,51,4.60
2010,04,09,09,52,4.70
2010,04,09,09,53,4.80
2010,04,09,09,54,4.90
2010,04,09,09,55,5.00
2010,04,09,09,56,5.10
2010,04,09,09,57,5.20
2010,04,09,09,58,5.30
2010,04,09,09,59,5.40
2010,04,09,10,00,5.50
2010,04,09,10,01,5.60
2010,04,09,10,02,5.60
2010,04,09,10,03,5.50
2010,04,09,10,04,5.40
2010,04,09,10,05,5.40
2010,04,09,10,06,5.50
2010,04,09,10,07,5.60
2010,04,09,10,08,5.60
2010,04,09,10,09,5.70
2010,04,09,10,10,5.70
2010,04,09,10,11,5.70
2010,04,09,10,12,5.80
2010,04,09,10,13,5.90
2010,04,09,10,14,6.00
2010,04,09,10,15,5.90
2010,04,09,10,16,6.00
2010,04,09,10,17,6.00
2010,04,09,10,18,6.10
2010,04,09,10,19,6.20
2010,04,09,10,20,6.30
2010,04,09,10,21,6.30
2010,04,09,10,22,6.40
2010,04,09,10,23,6.40
2010,04,09,10,24,6.40
2010,04,09,10,25,6.40
2010,04,09,10,26,6.40
2010,04,09,10,27,6.40
2010,04,09,10,28,6.50
2010,04,09,10,29,6.50
2010,04,09,10,30,6.60
2010,04,09,10,31,6.60
2010,04,09,10,32,6.60
2010,04,09,10,33,6.70
2010,04,09,10,34,6.80
2010,04,09,10,35,6.80
2010,04,09,10,36,6.80
2010,04,09,10,37,6.70
2010,04,09,10,38,6.60
2010,04,09,10,39,6.60
2010,04,09,10,40,6.60
2010,04,09,10,41,6.50
2010,04,09,10,42,6.40
2010,04,09,10,43,6.40
2010,04,09,10,44,6.30
2010,04,09,10,45,6.20
2010,04,09,10,46,6.20
2010,04,09,10,47,6.20
2010,04,09,10,48,6.20
2010,04,09,10,49,6.20
2010,04,09,10,50,6.20
2010,04,09,10,51,6.20
2010,04,09,10,52,6.30
2010,04,09,10,53,6.30
2010,04,09,10,54,6.20
2010,04,09,10,55,6.20
2010,04,09,10,56,6.20
2010,04,09,10,57,6.20
2010,04,09,10,58,6.20
2010,04,09,10,59,6.20
2010,04,09,11,00,6.30
2010,04,09,11,01,6.30
2010,04,09,11,02,6.30
2010,04,09,11,03,6.30
2010,04,09,11,04,6.30
2010,04,09,11,05,6.40
2010,04,09,11,06,6.50
2010,04,09,11,07,6.60
2010,04,09,11,08,6.70
2010,04,09,11,09,6.80
2010,04,09,11,10,6.80
2010,04,09,11,11,6.80
2010,04,09,11,12,6.90
2010,04,09,11,13,7.00
2010,04,09,11,14,7.00
2010,04,09,11,15,7.20
2010,04,09,11,16,7.30
2010,04,09,11,17,7.30
2010,04,09,11,18,7.30
2010,04,09,11,19,7.40
2010,04,09,11,20,7.40
2010,04,09,11,21,7.40
2010,04,09,11,22,7.40
2010,04,09,11,23,7.40
2010,04,09,11,24,7.30
2010,04,09,11,25,7.30
2010,04,09,11,26,7.30
2010,04,09,11,27,7.30
2010,04,09,11,28,7.20
2010,04,09,11,29,7.20
2010,04,09,11,30,7.20
2010,04,09,11,31,7.10
2010,04,09,11,32,7.00
2010,04,09,11,33,6.90
2010,04,09,11,34,6.90
2010,04,09,11,35,6.90
2010,04,09,11,36,7.00
2010,04,09,11,37,7.00
2010,04,09,11,38,7.00
2010,04,09,11,39,7.10
2010,04,09,11,40,7.20
2010,04,09,11,41,7.40
2010,04,09,11,42,7.50
2010,04,09,11,43,7.50
2010,04,09,11,44,7.60
2010,04,09,11,45,7.70
2010,04,09,11,46,7.80
2010,04,09,11,47,7.60
2010,04,09,11,48,7.60
2010,04,09,11,49,7.50
2010,04,09,11,50,7.40
2010,04,09,11,51,7.30
2010,04,09,11,52,7.30
2010,04,09,11,53,7.40
2010,04,09,11,54,7.50
2010,04,09,11,55,7.50
2010,04,09,11,56,7.60
2010,04,09,11,57,7.80
2010,04,09,11,58,8.00
2010,04,09,11,59,8.20
2010,04,09,12,00,8.40
2010,04,09,12,01,8.50
2010,04,09,12,02,8.60
2010,04,09,12,03,8.60
2010,04,09,12,04,8.60
2010,04,09,12,05,8.60
2010,04,09,12,06,8.60
2010,04,09,12,07,8.60
2010,04,09,12,08,8.60
2010,04,09,12,09,8.60
2010,04,09,12,10,8.70
2010,04,09,12,11,8.60
2010,04,09,12,12,8.50
2010,04,09,12,13,8.50
2010,04,09,12,14,8.50
2010,04,09,12,15,8.40
2010,04,09,12,16,8.30
2010,04,09,12,17,8.20
2010,04,09,12,18,8.00
2010,04,09,12,19,7.90
2010,04,09,12,20,7.90
2010,04,09,12,21,7.80
2010,04,09,12,22,7.80
2010,04,09,12,23,7.80
2010,04,09,12,24,7.80
2010,04,09,12,25,7.90
2010,04,09,12,26,8.00
2010,04,09,12,27,8.00
2010,04,09,12,28,8.10
2010,04,09,12,29,8.20
2010,04,09,12,30,8.30
2010,04,09,12,31,8.40
2010,04,09,12,32,8.50
2010,04,09,12,33,8.70
2010,04,09,12,34,8.70
2010,04,09,12,35,8.70
2010,04,09,12,36,8.60
2010,04,09,12,37,8.50
2010,04,09,12,38,8.40
2010,04,09,12,39,8.30
2010,04,09,12,40,8.20
2010,04,09,12,41,8.20
2010,04,09,12,42,8.20
2010,04,09,12,43,8.20
2010,04,09,12,44,8.20
2010,04,09,12,45,8.20
2010,04,09,12,46,8.30
2010,04,09,12,47,8.30
2010,04,09,12,48,8.30
2010,04,09,12,49,8.20
2010,04,09,12,50,8.20
2010,04,09,12,51,8.20
2010,04,09,12,52,8.20
2010,04,09,12,53,8.20
2010,04,09,12,54,8.30
2010,04,09,12,55,8.30
2010,04,09,12,56,8.30
2010,04,09,12,57,8.40
2010,04,09,12,58,8.40
2010,04,09,12,59,8.50
2010,04,09,13,00,8.50
2010,04,09,13,01,8.50
2010,04,09,13,02,8.50
2010,04,09,13,03,8.50
2010,04,09,13,04,8.60
2010,04,09,13,05,8.70
2010,04,09,13,06,8.70
2010,04,09,13,07,8.80
2010,04,09,13,08,8.90
2010,04,09,13,09,8.90
2010,04,09,13,10,8.90
2010,04,09,13,11,8.90
2010,04,09,13,12,9.00
2010,04,09,13,13,9.10
2010,04,09,13,14,9.10
2010,04,09,13,15,9.10
2010,04,09,13,16,9.10
2010,04,09,13,17,9.10
2010,04,09,13,18,9.10
2010,04,09,13,19,8.90
2010,04,09,13,20,8.80
2010,04,09,13,21,8.70
2010,04,09,13,22,8.70
2010,04,09,13,23,8.80
2010,04,09,13,24,8.80
2010,04,09,13,25,8.80
2010,04,09,13,26,8.90
2010,04,09,13,27,8.90
2010,04,09,13,28,8.90
2010,04,09,13,29,9.10
2010,04,09,13,30,9.10
2010,04,09,13,31,9.10
2010,04,09,13,32,9.10
2010,04,09,13,33,9.10
2010,04,09,13,34,9.10
2010,04,09,13,35,9.10
2010,04,09,13,36,9.10
2010,04,09,13,37,9.10
2010,04,09,13,38,9.20
2010,04,09,13,39,9.20
2010,04,09,13,40,9.30
2010,04,09,13,41,9.30
2010,04,09,13,42,9.30
2010,04,09,13,43,9.30
2010,04,09,13,44,9.40
2010,04,09,13,45,9.50
2010,04,09,13,46,9.60
2010,04,09,13,47,9.60
2010,04,09,13,48,9.60
2010,04,09,13,49,9.50
2010,04,09,13,50,9.40
2010,04,09,13,51,9.40
2010,04,09,13,52,9.40
2010,04,09,13,53,9.50
2010,04,09,13,54,9.50
2010,04,09,13,55,9.60
2010,04,09,13,56,9.50
2010,04,09,13,57,9.40
2010,04,09,13,58,9.40
2010,04,09,13,59,9.40
2010,04,09,14,00,9.40
2010,04,09,14,01,9.50
2010,04,09,14,02,9.50
2010,04,09,14,03,9.50
2010,04,09,14,04,9.50
2010,04,09,14,05,9.50
2010,04,09,14,06,9.40
2010,04,09,14,07,9.40
2010,04,09,14,08,9.40
2010,04,09,14,09,9.50
2010,04,09,14,10,9.60
2010,04,09,14,11,9.70
2010,04,09,14,12,9.80
2010,04,09,14,13,9.90
2010,04,09,14,14,10.00
2010,04,09,14,15,10.10
2010,04,09,14,16,10.00
2010,04,09,14,17,9.90
2010,04,09,14,18,9.90
2010,04,09,14,19,9.70
2010,04,09,14,20,9.60
2010,04,09,14,21,9.50
2010,04,09,14,22,9.40
2010,04,09,14,23,9.20
2010,04,09,14,24,9.20
2010,04,09,14,25,9.30
2010,04,09,14,26,9.40
2010,04,09,14,27,9.50
2010,04,09,14,28,9.40
2010,04,09,14,29,9.20
2010,04,09,14,30,9.10
2010,04,09,14,31,9.00
2010,04,09,14,32,8.90
2010,04,09,14,33,8.80
2010,04,09,14,34,8.80
2010,04,09,14,35,8.80
2010,04,09,14,36,8.90
2010,04,09,14,37,8.90
2010,04,09,14,38,8.90
2010,04,09,14,39,8.90
2010,04,09,14,40,9.00
2010,04,09,14,41,9.00
2010,04,09,14,42,9.00
2010,04,09,14,43,9.00
2010,04,09,14,44,8.90
2010,04,09,14,45,8.90
2010,04,09,14,46,8.90
2010,04,09,14,47,9.00
2010,04,09,14,48,9.00
2010,04,09,14,49,9.00
2010,04,09,14,50,9.10
2010,04,09,14,51,9.20
2010,04,09,14,52,9.10
2010,04,09,14,53,9.00
2010,04,09,14,54,8.90
2010,04,09,14,55,8.90
2010,04,09,14,56,9.00
2010,04,09,14,57,9.00
2010,04,09,14,58,9.00
2010,04,09,14,59,8.90
2010,04,09,15,00,8.90
2010,04,09,15,01,8.90
2010,04,09,15,02,9.00
2010,04,09,15,03,9.00
2010,04,09,15,04,9.10
2010,04,09,15,05,9.10
2010,04,09,15,06,9.00
2010,04,09,15,07,9.00
2010,04,09,15,08,9.00
2010,04,09,15,09,8.90
2010,04,09,15,10,8.90
2010,04,09,15,11,8.80
2010,04,09,15,12,8.80
2010,04,09,15,13,8.80
2010,04,09,15,14,8.80
2010,04,09,15,15,8.70
2010,04,09,15,16,8.70
2010,04,09,15,17,8.70
2010,04,09,15,18,8.70
2010,04,09,15,19,8.70
2010,04,09,15,20,8.60
2010,04,09,15,21,8.60
2010,04,09,15,22,8.50
2010,04,09,15,23,8.50
2010,04,09,15,24,8.50
2010,04,09,15,25,8.50
2010,04,09,15,26,8.60
2010,04,09,15,27,8.60
2010,04,09,15,28,8.60
2010,04,09,15,29,8.70
2010,04,09,15,30,8.70
2010,04,09,15,31,8.70
2010,04,09,15,32,8.70
2010,04,09,15,33,8.80
2010,04,09,15,34,8.80
2010,04,09,15,35,8.80
2010,04,09,15,36,8.80
2010,04,09,15,37,8.90
2010,04,09,15,38,8.90
2010,04,09,15,39,8.90
2010,04,09,15,40,8.80
2010,04,09,15,41,8.80
2010,04,09,15,42,8.80
2010,04,09,15,43,8.80
2010,04,09,15,44,8.80
2010,04,09,15,45,8.90
2010,04,09,15,46,8.90
2010,04,09,15,47,8.90
2010,04,09,15,48,8.80
2010,04,09,15,49,8.70
2010,04,09,15,50,8.70
2010,04,09,15,51,8.60
2010,04,09,15,52,8.50
2010,04,09,15,53,8.40
2010,04,09,15,54,8.40
2010,04,09,15,55,8.40
2010,04,09,15,56,8.40
2010,04,09,15,57,8.50
2010,04,09,15,58,8.50
2010,04,09,15,59,8.60
2010,04,09,16,00,8.60
2010,04,09,16,01,8.60
2010,04,09,16,02,8.60
2010,04,09,16,03,8.60
2010,04,09,16,04,8.60
2010,04,09,16,05,8.50
2010,04,09,16,06,8.50
2010,04,09,16,07,8.40
2010,04,09,16,08,8.40
2010,04,09,16,09,8.30
2010,04,09,16,10,8.20
2010,04,09,16,11,8.20
2010,04,09,16,12,8.20
2010,04,09,16,13,8.10
2010,04,09,16,14,8.10
2010,04,09,16,15,8.10
2010,04,09,16,16,8.10
2010,04,09,16,17,8.10
2010,04,09,16,18,8.10
2010,04,09,16,19,8.10
2010,04,09,16,20,8.10
2010,04,09,16,21,8.20
2010,04,09,16,22,8.20
2010,04,09,16,23,8.20
2010,04,09,16,24,8.20
2010,04,09,16,25,8.30
2010,04,09,16,26,8.30
2010,04,09,16,27,8.30
2010,04,09,16,28,8.30
2010,04,09,16,29,8.30
2010,04,09,16,30,8.40
2010,04,09,16,31,8.40
2010,04,09,16,32,8.40
2010,04,09,16,33,8.30
2010,04,09,16,34,8.30
2010,04,09,16,35,8.30
2010,04,09,16,36,8.30
2010,04,09,16,37,8.30
2010,04,09,16,38,8.30
2010,04,09,16,39,8.40
2010,04,09,16,40,8.40
2010,04,09,16,41,8.40
2010,04,09,16,42,8.40
2010,04,09,16,43,8.40
2010,04,09,16,44,8.40
2010,04,09,16,45,8.40
2010,04,09,16,46,8.30
2010,04,09,16,47,8.30
2010,04,09,16,48,8.30
2010,04,09,16,49,8.30
2010,04,09,16,50,8.30
2010,04,09,16,51,8.30
2010,04,09,16,52,8.30
2010,04,09,16,53,8.30
2010,04,09,16,54,8.30
2010,04,09,16,55,8.20
2010,04,09,16,56,8.20
2010,04,09,16,57,8.20
2010,04,09,16,58,8.20
2010,04,09,16,59,8.20
2010,04,09,17,00,8.20
2010,04,09,17,01,8.20
2010,04,09,17,02,8.20
2010,04,09,17,03,8.20
2010,04,09,17,04,8.20
2010,04,09,17,05,8.10
2010,04,09,17,06,8.10
2010,04,09,17,07,8.10
2010,04,09,17,08,8.10
2010,04,09,17,09,8.10
2010,04,09,17,10,8.10
2010,04,09,17,11,8.10
2010,04,09,17,12,8.20
2010,04,09,17,13,8.20
2010,04,09,17,14,8.20
2010,04,09,17,15,8.10
2010,04,09,17,16,8.00
2010,04,09,17,17,7.90
2010,04,09,17,18,7.90
2010,04,09,17,19,7.80
2010,04,09,17,20,7.70
2010,04,09,17,21,7.70
2010,04,09,17,22,7.60
2010,04,09,17,23,7.60
2010,04,09,17,24,7.70
2010,04,09,17,25,7.70
2010,04,09,17,26,7.70
2010,04,09,17,27,7.70
2010,04,09,17,28,7.80
2010,04,09,17,29,7.80
2010,04,09,17,30,7.80
2010,04,09,17,31,7.80
2010,04,09,17,32,7.80
2010,04,09,17,33,7.80
2010,04,09,17,34,7.80
2010,04,09,17,35,7.90
2010,04,09,17,36,7.90
2010,04,09,17,37,7.90
2010,04,09,17,38,7.90
2010,04,09,17,39,8.00
2010,04,09,17,40,8.00
2010,04,09,17,41,8.10
2010,04,09,17,42,8.10
2010,04,09,17,43,8.20
2010,04,09,17,44,8.20
2010,04,09,17,45,8.20
2010,04,09,17,46,8.20
2010,04,09,17,47,8.20
2010,04,09,17,48,8.20
2010,04,09,17,49,8.20
2010,04,09,17,50,8.20
2010,04,09,17,51,8.20
2010,04,09,17,52,8.20
2010,04,09,17,53,8.20
2010,04,09,17,54,8.10
2010,04,09,17,55,8.10
2010,04,09,17,56,8.00
2010,04,09,17,57,8.00
2010,04,09,17,58,7.90
2010,04,09,17,59,7.90
2010,04,09,18,00,7.90